Simultaneous Nadir Overpasses (SNOs) Predictions

Prediction of SNOs between GOES-14 and NPP Satellite Orbit:

Table of predicted SNOs for the next 14.0 days since TLE Epoch: 5/22/2020
Index Date Time (GOES-14) GOES-14 Lat,Lon NPP Lat,Lon Distance(km) Time Diff (sec)
1 05/24/2020 20:23:10 -0.04,-104.27 -0.02,-104.26 2.47 80
2 05/27/2020 08:23:32 0.03,-104.14 0.24,-104.98 96.83 80
3 05/28/2020 08:07:27 0.05,-104.14 -0.80,-100.45 420.43 80
4 05/29/2020 20:29:24 -0.02,-104.27 -0.37,-105.76 169.72 80
5 05/30/2020 20:07:59 -0.04,-104.27 0.67,-101.23 346.86 80
6 06/01/2020 08:29:46 0.01,-104.13 0.52,-106.50 269.57 80
7 06/02/2020 08:13:41 0.02,-104.13 -0.45,-101.96 247.72 80
8 06/03/2020 20:32:58 0.01,-104.28 -0.65,-107.28 340.93 80
9 06/04/2020 20:16:53 -0.00,-104.28 0.33,-102.74 175.59 80




NCC Satellite Simultaneous Nadir Overpasses (SNOs) Prediction Service
